Flag for U.S.A. Weather past 2 weeks in Amarillo, Texas, U.S.A.

Now
38 °F

Clear.


Feels Like: 32 °F
Forecast: 41 / 73 °F
Wind: 8 mph from Southeast

Location: Amarillo International Airport


UV Index: 5 (Moderate)

Visibility: 9 mi


Pressure: 30.25 "Hg

Humidity: 79%

Dew point: 32 °F

Location of AmarilloLocation

Historic Weather in Amarillo

°F

Amarillo temperature yesterday

Maximum temperature yesterday: 53 °F (at 12:53 AM)
Minimum temperature yesterday: 38 °F (at 11:53 PM)
Average temperature yesterday: 46 °F

Past Weeks' High & Low Weather Summary

 TemperatureHumidityPressure
High88 °F (Apr 9, 3:53 PM)97% (Apr 6, 6:53 AM)30.34 "Hg (Apr 6, 6:53 AM)
Low26 °F (Apr 15, 4:53 AM)4% (Apr 9, 5:53 PM)29.48 "Hg (Apr 2, 11:53 PM)
Average54 °F41%29.95 "Hg
* Reported Apr 2 11:53 PM — Apr 17 11:53 PM, Amarillo, Weather by CustomWeather, © 2014

Note: Actual official high and low records may vary slightly from our data, if they occured in-between our weather recording intervals... More about our weather records

Advertising

Historic Weather Conditions — Data for Previous 24 hours

 ConditionsComfort  
Time TempWeatherWind HumidityBarometerVisibility
11:53 PM
Apr 17
38 °FClear.8 mph79%30.25 "Hg9 mi
10:53 PM39 °FClear.6 mph76%30.25 "Hg9 mi
9:53 PM42 °FClear.8 mph76%30.22 "Hg9 mi
8:53 PM44 °FPassing clouds.8 mph71%30.21 "Hg10 mi
7:53 PM47 °FPartly sunny.8 mph66%30.19 "Hg10 mi
6:53 PM49 °FOvercast.9 mph61%30.18 "Hg10 mi
5:53 PM48 °FOvercast.9 mph63%30.17 "Hg10 mi
4:53 PM49 °FOvercast.8 mph61%30.17 "Hg10 mi
3:53 PM50 °FOvercast.8 mph59%30.16 "Hg10 mi
3:02 PM50 °FScattered clouds.14 mph59%30.21 "Hg10 mi
2:53 PM50 °FPartly sunny.13 mph57%30.16 "Hg10 mi
1:53 PM45 °FOvercast.15 mph65%30.19 "Hg10 mi
12:53 PM44 °FOvercast.14 mph65%30.19 "Hg10 mi
11:53 AM43 °FOvercast.20 mph65%30.19 "Hg10 mi
10:53 AM43 °FOvercast.18 mph65%30.16 "Hg10 mi
9:53 AM44 °FOvercast.20 mph65%30.10 "Hg10 mi
8:53 AM44 °FOvercast.20 mph65%30.09 "Hg10 mi
7:53 AM44 °FOvercast.20 mph65%30.04 "Hg10 mi
6:53 AM45 °FPassing clouds.15 mph65%29.98 "Hg10 mi
5:53 AM45 °FClear.18 mph63%29.93 "Hg10 mi
4:53 AM45 °FClear.17 mph63%29.91 "Hg10 mi
3:53 AM47 °FClear.18 mph56%29.89 "Hg10 mi
2:53 AM50 °FClear.20 mph46%29.88 "Hg10 mi
1:53 AM51 °FClear.18 mph39%29.88 "Hg10 mi
Weather by CustomWeather, © 2014

See weather overview